Starlink 11565

operational
NORAD ID: 62912 Int'l Des: 2025-027 Owner: SPXS Country: US Constellation: starlink
LEOCIRCULAR

关于 Starlink 11565

正在加载描述...

实时位置

正在加载3D地球...

即将过境

高度历史

Altitude vs Time

uPlot chart will show altitude changes over time

两行轨道根数

1 62912U 25027F 25257.48115464 .00160607 00000-0 12298-2 0 9994
2 62912 42.9999 329.3847 0000779 251.6694 108.4089 15.70864893 35443
Epoch: Sep 14, 2025 • Age: 20 hours

当前状态

高度 363.7 km
速度 7.69 km/s
星下点 -30.90°S, 177.38°W
发射日期 Feb 8, 2025
运行时间 0.5 years
类型 internet

技术详情

分类 Payload
质量 960.00 kg
干质量 910.00 kg
总质量 960.00 kg
长度 0.30 m
直径 4.10 m
跨度 29.00 m
形状 Box + pan
制造商 SPXS
平台类型 Starlink V2MD
阶段状态 In Orbit
所有者/国家 SPXS/US

大型星座

Loading constellations...